Regional Weather Roundup
Issued by NWS Upton, NY

Home | Current Version | Previous Version | Text Only | Print | Product List | Glossary On
Versions: 1 2 3 4 5 6 7 8 9 10 11 12 13 14 15 16 17 18 19 20 21 22 23 24 25 26 27 28 29 30
000
ASUS41 KOKX 172009
RWROKX

Regional Weather Roundup
National Weather Service New York NY
300 PM EST SUN DEC 17 2017

Note: "FAIR" indicates few or no clouds below 12,000 feet with no
significant weather and/or obstructions to visibility.

NYZ071-072-176-178-NJZ106-104-172100-
New York City Metro Area

CITY           SKY/WX    TMP DP  RH WIND       PRES   REMARKS
Central Park   CLOUDY    37  24  59 NE5       30.25S WCI  33
Bronx Bot Gard   N/A     36  23  60 E5        30.23F WCI  32
Bronx Lehman C   N/A     36  23  60 NE2         N/A
LaGuardia Arpt CLOUDY    37  24  59 NE6       30.23F WCI  32
Queens College   N/A     36  25  64 NE2         N/A
Kennedy Intl   PTSUNNY   37  25  61 CALM      30.25S
Breezy Point     N/A     36 N/A N/A E3          N/A
Brooklyn Coll    N/A     37  27  65 SE3         N/A
Staten Island    N/A     37  27  65 E2          N/A
Newark/Liberty CLOUDY    37  24  59 NE5       30.24S WCI  33
Teterboro      CLOUDY    37  23  56 CALM      30.23S
$$

NYZ177-179-078>081-172100-
Long Island New York

CITY           SKY/WX    TMP DP  RH WIND       PRES   REMARKS
Jones Beach      N/A     34 N/A N/A E1          N/A
Wantagh          N/A     34  25  69 E3          N/A
Matinecock Pt    N/A     34 N/A N/A E5          N/A  WCI  30
Farmingdale    CLOUDY    34  23  64 CALM      30.24S
MacArthur/ISP  CLOUDY    33  23  66 N5        30.23F WCI  29
Shirley        PTSUNNY   33  22  63 NW7       30.25S WCI  27
Mt Sinai Harb    N/A    N/A N/A N/A NW5         N/A
Westhampton    CLOUDY    32  20  61 NW6       30.26R WCI  26
East Hampton   CLOUDY    30  17  57 CALM      30.24S
Southold         N/A     32  19  59 NW3         N/A
Montauk          N/A     34  11  38 NW9       30.24S WCI  27
$$

NYZ052-065-067-172100-
Hudson Valley

CITY           SKY/WX    TMP DP  RH WIND       PRES   REMARKS
White Plains   CLOUDY    32  21  64 CALM      30.21S
Larchmont Harb   N/A     32 N/A N/A NE1         N/A
Croton On Huds   N/A     36 N/A N/A W1          N/A
Somers           N/A     32  21  64 N2          N/A
Brewster         N/A     30  16  55 W3          N/A
Newburgh       PTSUNNY   28  21  74 VRB5      30.24R WCI  23
Montgomery     CLOUDY    31  20  63 NE5       30.21S WCI  26
Otisville        N/A     32  21  64 S3          N/A
Warwick          N/A     32  21  64 N1          N/A
Suffern          N/A     32  23  69 N1          N/A
Poughkeepsie   CLOUDY    29  14  53 CALM      30.25R
Albany         CLOUDY    26  11  52 NW12      30.26R WCI  16
$$

NJZ001-105-106-008-010-013-015-019>022-104-172100-
New Jersey

CITY           SKY/WX    TMP DP  RH WIND       PRES   REMARKS
Newark/Liberty CLOUDY    37  24  59 NE5       30.24S WCI  33
Teterboro      CLOUDY    37  23  56 CALM      30.23S
Caldwell       MOSUNNY   37  23  56 CALM      30.23S
Somerville     CLOUDY    38  27  64 CALM      30.21S
Linden         FAIR      37  24  58 CALM      30.24S
Perth Amboy      N/A     36 N/A N/A E7          N/A  WCI  30
Sussex         CLOUDY    33  23  66 CALM      30.21S
Andover        NOT AVBL
Trenton        MOSUNNY   40  28  62 CALM      30.22S
Millville      CLOUDY    46  31  55 SW3       30.21R
Atlantic City  CLOUDY    45  37  73 E5        30.21S
Wrightstown    CLOUDY    42  31  66 NE6       30.19R
Toms River     MOSUNNY   42  33  70 E6        30.22S
Belmar         CLOUDY    38  31  76 E6        30.23F WCI  33
$$

PAZ047>061-062-071-172100-
Eastern Pennsylvania

CITY           SKY/WX    TMP DP  RH WIND       PRES   REMARKS
Philadelphia   CLOUDY    44  28  53 CALM      30.22S
Allentown      PTSUNNY   37  24  59 N3        30.21S
Scranton       CLOUDY    32  24  72 CALM      30.18S
$$

CTZ002-004>006-009-010-012-RIZ004-006-007-MAZ004-011-015-172100-
Southern New England

 In CT

CITY           SKY/WX    TMP DP  RH WIND       PRES   REMARKS
Bradley Intl   CLOUDY    29   9  43 W8        30.24R WCI  21
Hartford       CLOUDY    30  11  45 CALM      30.26R
Danbury        CLOUDY    31  17  56 W3        30.24R
Wtrbury/Oxford CLOUDY    29  15  56 CALM      30.21R
Norwalk Harbor   N/A    N/A N/A N/A NW5         N/A
Bridgeport     CLOUDY    33  18  53 W5        30.25R WCI  29
Meriden        CLOUDY    31   8  38 N5        30.24R WCI  26
New Haven      CLOUDY    33  14  45 NW3       30.25R
Chester        FAIR      30   9  40 CALM      30.23R
Groton         CLOUDY    31   9  39 N7        30.24R WCI  24
Willimantic    CLOUDY    29   9  43 W6        30.24S WCI  23

 In RI

CITY           SKY/WX    TMP DP  RH WIND       PRES   REMARKS
Providence     MOSUNNY   30   7  37 W6        30.23S WCI  24
Block Island   MOSUNNY   32   8  36 NW8       30.23S WCI  25
Westerly       CLOUDY    31   3  30 NW5       30.24S WCI  26

In MA

CITY           SKY/WX    TMP DP  RH WIND       PRES   REMARKS
Boston         CLOUDY    29   2  31 NW8       30.21F WCI  21
Worcester      CLOUDY    24   1  36 NW7       30.16S WCI  16
Westfield      CLOUDY    28   8  43 W8        30.23R WCI  20
Provincetown   CLEAR     28  12  51 NW14      30.21F WCI  17
Nantucket      CLOUDY    28  12  51 W8        30.21F WCI  20
$$

ANZ330-335-338-340-345-350-353-355-172100-
Coastal Marine Observations


STATION/POSITION TIME  SKY/WX   TEMP    WIND        PRES    VSBY  WAVE
                                AIR SEA DIR/SP/G                  HT/PER
                 (UTC)          (F)     (DEG/KT/KT) (MB)    (MI)  (FT/S)
NY Harb Entrance 1850            38 51   60/  4/  6 1023.9          1/ 6
20 S Fire Island 1850            36 50   40/  6/  8 1024.3          2/ 6
15 E Barnegat Li 1930               49                N/A           2/ 5
Hudson Canyon    1950            43 54   40/  4/  6 1023.3          3/ 6
Kings Point      1948            35 42   60/  3/  5 1024.7
Execution Rocks  1930            37      60/  2/  4   N/A
Western LI Sound NOT AVBL
Central LI Sound NOT AVBL
Robbins Reef     1948            36     330/  3/  4 1024.3
$$


>>>>>>>>>>>>>>>>>>>>>>>>>>>> KEY <<<<<<<<<<<<<<<<<<<<<<<<<<<
>                                                          <
>     SKY/WX - Sky Condition/Present Weather               <
>     TMP    - Temperature in Fahrenheit                   <
>     DP     - Dew Point in Fahrenheit                     <
>     RH     - Relative Humidity in Percent                <
>     WIND   - Direction (from) and Speed in MPH           <
>     PRES   - Mean Sea Level Pressure (inches of Hg)      <
>     WCI    - Wind Chill Index                            <
>     VSB    - Visibility in Miles                         <
>     HX     - Heat Index                                  <
>     TC     - Temperature in Celsius                      <
>     VRB    - Varibale Wind Direction                     <
>                                                          <
>>>>>>>>>>>>>>>>>>>>>>>>>>>> KEY <<<<<<<<<<<<<<<<<<<<<<<<<<<




USA.gov is the U.S. government's official web portal to all federal, state and local government web resources and services.